GFSWCAN_prec_precacc24_216.txt.gz
Total_Precipitation_Accumulation
0.07 0.09 0.08 0.04 0.05 0.04 0.04 0.02 0.02 0.01 0.03 0.10 0.30 0.40 0.48 0.51 0.63 0.90 1.22 0.46 1.25 1.49 0.51 0.05 0.04 0.05 0.07 0.20 0.44 0.38 0.54 0.74 0.86 0.89 0.90 0.80 0.64 0.37 0.22 0.12 0.16 0.42 0.72 0.83 0.74 0.63 0.24 0.01 0.01 0.06 0.06 0.01 0.01 0.02
0.06 0.08 0.07 0.04 0.03 0.03 0.01 0.01 0.01 0.01 0.03 0.08 0.23 0.35 0.39 0.41 0.59 0.62 1.11 0.72 1.33 2.05 1.29 0.14 0.05 0.03 0.03 0.11 0.19 0.38 0.43 0.33 0.38 0.52 0.44 0.42 0.31 0.23 0.18 0.22 0.11 0.14 0.33 0.62 0.68 0.47 0.11 0.01 0.02 0.06 0.11 0.12 0.10 0.10
0.05 0.07 0.05 0.03 0.01 0.02 0.01 0.01 0.00 0.02 0.02 0.04 0.15 0.26 0.29 0.44 0.64 0.70 0.89 1.10 2.06 2.32 1.23 0.45 0.21 0.09 0.08 0.15 0.18 0.74 0.50 0.16 0.29 0.27 0.39 0.37 0.29 0.16 0.15 0.10 0.10 0.08 0.07 0.17 0.29 0.27 0.23 0.21 0.10 0.04 0.05 0.05 0.06 0.06
0.03 0.04 0.05 0.03 0.02 0.01 0.01 0.01 0.00 0.01 0.01 0.01 0.05 0.15 0.17 0.29 0.57 0.62 0.68 0.79 1.21 1.16 1.20 0.93 0.29 0.18 0.12 0.13 0.27 0.34 0.24 0.13 0.21 0.37 0.65 0.71 0.54 0.30 0.25 0.23 0.20 0.14 0.18 0.18 0.16 0.07 0.04 0.04 0.08 0.09 0.07 0.03 0.03 0.02
0.03 0.04 0.05 0.05 0.03 0.01 0.01 0.00 0.00 0.00 0.00 0.00 0.01 0.03 0.07 0.09 0.28 0.49 0.41 0.41 0.59 0.64 0.80 0.92 0.52 0.36 0.22 0.17 0.22 0.35 0.33 0.35 0.52 0.54 0.65 0.52 0.33 0.44 0.35 0.28 0.19 0.06 0.07 0.17 0.21 0.08 0.08 0.06 0.02 0.03 0.09 0.11 0.06 0.04
0.03 0.03 0.04 0.04 0.02 0.01 0.01 0.00 0.00 0.00 0.00 0.00 0.00 0.00 0.02 0.05 0.07 0.33 0.53 0.45 0.43 0.47 0.60 0.66 0.91 0.78 0.38 0.30 0.34 0.47 0.81 0.83 0.59 0.52 0.40 0.19 0.08 0.23 0.36 0.22 0.04 0.01 0.04 0.09 0.12 0.06 0.06 0.06 0.04 0.01 0.01 0.04 0.14 0.15
0.04 0.03 0.03 0.02 0.01 0.01 0.01 0.01 0.00 0.00 0.00 0.00 0.00 0.00 0.00 0.01 0.03 0.08 0.33 0.41 0.32 0.28 0.47 0.39 0.59 0.82 0.79 0.53 0.60 0.71 0.71 1.06 0.93 0.72 0.46 0.22 0.12 0.19 0.21 0.04 0.01 0.02 0.07 0.10 0.09 0.09 0.07 0.02 0.00 0.00 0.00 0.01 0.04 0.09
0.03 0.04 0.02 0.02 0.01 0.01 0.01 0.01 0.00 0.00 0.00 0.00 0.00 0.00 0.00 0.00 0.00 0.02 0.01 0.06 0.20 0.39 0.38 0.34 0.48 0.50 0.56 0.69 0.69 0.60 0.65 0.61 0.60 0.63 0.46 0.27 0.25 0.27 0.18 0.01 0.00 0.00 0.00 0.01 0.03 0.06 0.08 0.06 0.03 0.00 0.00 0.00 0.00 0.05
0.01 0.02 0.01 0.01 0.01 0.01 0.01 0.00 0.00 0.00 0.00 0.00 0.00 0.00 0.00 0.00 0.00 0.01 0.00 0.01 0.07 0.27 0.33 0.23 0.22 0.41 0.30 0.33 0.46 0.47 0.42 0.53 0.38 0.33 0.29 0.28 0.30 0.16 0.03 0.00 0.01 0.01 0.02 0.01 0.01 0.02 0.01 0.01 0.00 0.00 0.00 0.00 0.00 0.00
0.02 0.01 0.02 0.01 0.01 0.01 0.00 0.00 0.00 0.00 0.00 0.00 0.00 0.00 0.02 0.00 0.00 0.00 0.01 0.04 0.08 0.15 0.24 0.30 0.15 0.25 0.26 0.22 0.28 0.32 0.31 0.37 0.39 0.29 0.16 0.19 0.06 0.01 0.00 0.00 0.01 0.00 0.00 0.01 0.01 0.01 0.01 0.00 0.00 0.00 0.00 0.00 0.00 0.00
0.03 0.03 0.02 0.02 0.01 0.01 0.00 0.00 0.01 0.00 0.00 0.00 0.01 0.01 0.01 0.00 0.00 0.01 0.03 0.05 0.06 0.16 0.23 0.33 0.27 0.22 0.16 0.15 0.22 0.19 0.21 0.17 0.21 0.19 0.10 0.11 0.05 0.02 0.01 0.02 0.01 0.00 0.00 0.02 0.01 0.00 0.00 0.00 0.00 0.00 0.00 0.00 0.00 0.00
0.03 0.04 0.05 0.03 0.01 0.01 0.01 0.00 0.01 0.01 0.01 0.00 0.01 0.01 0.00 0.00 0.01 0.02 0.01 0.01 0.05 0.13 0.11 0.15 0.17 0.13 0.11 0.06 0.14 0.12 0.13 0.08 0.16 0.07 0.05 0.04 0.03 0.01 0.02 0.04 0.02 0.01 0.01 0.01 0.01 0.00 0.00 0.00 0.00 0.00 0.00 0.00 0.00 0.00
0.02 0.03 0.03 0.04 0.01 0.01 0.01 0.01 0.01 0.00 0.00 0.01 0.02 0.02 0.01 0.01 0.01 0.05 0.07 0.03 0.08 0.08 0.07 0.04 0.06 0.05 0.05 0.04 0.07 0.06 0.07 0.09 0.05 0.04 0.03 0.04 0.01 0.00 0.01 0.06 0.03 0.02 0.02 0.02 0.01 0.01 0.02 0.02 0.02 0.01 0.01 0.01 0.00 0.00
0.02 0.02 0.02 0.02 0.01 0.01 0.01 0.00 0.00 0.00 0.01 0.02 0.03 0.02 0.01 0.03 0.07 0.06 0.09 0.06 0.05 0.03 0.04 0.04 0.05 0.05 0.04 0.04 0.05 0.06 0.05 0.04 0.04 0.03 0.05 0.05 0.01 0.00 0.04 0.05 0.04 0.03 0.02 0.02 0.04 0.08 0.10 0.07 0.05 0.03 0.02 0.00 0.00 0.00
0.02 0.02 0.02 0.01 0.01 0.01 0.01 0.00 0.00 0.01 0.02 0.02 0.02 0.04 0.08 0.02 0.00 0.00 0.03 0.02 0.02 0.02 0.04 0.06 0.06 0.05 0.05 0.03 0.02 0.02 0.03 0.02 0.01 0.04 0.05 0.08 0.01 0.02 0.03 0.01 0.01 0.01 0.01 0.01 0.04 0.08 0.11 0.11 0.10 0.07 0.02 0.00 0.00 0.00
0.04 0.03 0.01 0.01 0.01 0.01 0.00 0.00 0.00 0.01 0.01 0.01 0.01 0.02 0.00 0.00 0.00 0.00 0.00 0.01 0.01 0.02 0.03 0.04 0.04 0.03 0.01 0.01 0.01 0.01 0.02 0.02 0.05 0.02 0.01 0.06 0.03 0.01 0.05 0.07 0.03 0.01 0.00 0.00 0.01 0.01 0.01 0.02 0.02 0.02 0.02 0.01 0.00 0.00
0.05 0.03 0.01 0.01 0.01 0.01 0.00 0.01 0.02 0.02 0.01 0.01 0.00 0.00 0.00 0.00 0.00 0.00 0.00 0.02 0.00 0.02 0.06 0.08 0.03 0.02 0.03 0.02 0.01 0.01 0.04 0.06 0.03 0.01 0.00 0.00 0.00 0.00 0.01 0.04 0.05 0.02 0.00 0.00 0.00 0.00 0.00 0.00 0.00 0.00 0.01 0.01 0.01 0.01
0.05 0.02 0.02 0.02 0.03 0.02 0.01 0.02 0.03 0.01 0.00 0.00 0.00 0.00 0.00 0.00 0.01 0.00 0.00 0.01 0.01 0.02 0.05 0.08 0.08 0.04 0.05 0.03 0.03 0.08 0.06 0.00 0.00 0.00 0.00 0.00 0.00 0.00 0.00 0.00 0.01 0.01 0.00 0.00 0.00 0.00 0.00 0.00 0.00 0.00 0.00 0.01 0.01 0.01
0.04 0.03 0.02 0.03 0.08 0.11 0.03 0.02 0.01 0.01 0.00 0.00 0.00 0.00 0.01 0.01 0.01 0.00 0.01 0.00 0.01 0.01 0.07 0.07 0.05 0.03 0.07 0.07 0.09 0.10 0.02 0.00 0.00 0.00 0.00 0.00 0.00 0.00 0.00 0.00 0.00 0.00 0.00 0.00 0.00 0.00 0.00 0.00 0.00 0.00 0.00 0.00 0.01 0.01
0.04 0.03 0.02 0.04 0.16 0.15 0.04 0.01 0.02 0.03 0.01 0.01 0.01 0.01 0.01 0.01 0.01 0.01 0.01 0.01 0.01 0.01 0.02 0.01 0.00 0.04 0.08 0.11 0.09 0.11 0.01 0.00 0.00 0.00 0.00 0.01 0.01 0.00 0.00 0.00 0.00 0.00 0.00 0.00 0.00 0.00 0.00 0.00 0.00 0.00 0.00 0.00 0.01 0.01
0.07 0.02 0.04 0.08 0.17 0.16 0.07 0.02 0.03 0.02 0.03 0.03 0.02 0.04 0.05 0.04 0.04 0.04 0.03 0.03 0.03 0.02 0.00 0.00 0.00 0.02 0.03 0.05 0.04 0.03 0.00 0.00 0.00 0.00 0.00 0.00 0.01 0.01 0.00 0.00 0.00 0.00 0.00 0.00 0.00 0.00 0.00 0.00 0.00 0.00 0.00 0.00 0.00 0.00
0.12 0.08 0.13 0.22 0.25 0.16 0.13 0.01 0.01 0.04 0.08 0.06 0.08 0.13 0.13 0.08 0.05 0.03 0.05 0.06 0.03 0.01 0.00 0.00 0.01 0.04 0.01 0.01 0.01 0.01 0.00 0.00 0.00 0.00 0.00 0.00 0.00 0.00 0.00 0.00 0.00 0.00 0.00 0.00 0.00 0.01 0.00 0.00 0.00 0.00 0.00 0.00 0.00 0.00
0.16 0.18 0.26 0.27 0.39 0.24 0.09 0.02 0.02 0.01 0.07 0.07 0.07 0.12 0.11 0.10 0.10 0.08 0.10 0.04 0.02 0.01 0.00 0.00 0.00 0.01 0.02 0.01 0.01 0.01 0.00 0.01 0.00 0.00 0.00 0.00 0.00 0.00 0.00 0.00 0.00 0.00 0.00 0.00 0.00 0.00 0.01 0.01 0.00 0.01 0.01 0.01 0.01 0.02
0.31 0.31 0.19 0.15 0.19 0.22 0.18 0.08 0.05 0.04 0.04 0.06 0.10 0.12 0.11 0.13 0.19 0.27 0.16 0.04 0.05 0.04 0.02 0.01 0.01 0.02 0.03 0.04 0.04 0.01 0.02 0.05 0.01 0.00 0.00 0.00 0.01 0.02 0.02 0.01 0.00 0.00 0.00 0.00 0.00 0.00 0.00 0.01 0.01 0.02 0.02 0.02 0.01 0.01
0.43 0.35 0.20 0.15 0.08 0.11 0.11 0.15 0.14 0.16 0.11 0.05 0.05 0.07 0.14 0.16 0.23 0.17 0.10 0.09 0.13 0.08 0.06 0.04 0.04 0.06 0.07 0.06 0.06 0.04 0.02 0.03 0.00 0.01 0.02 0.01 0.01 0.02 0.05 0.07 0.04 0.02 0.01 0.03 0.04 0.03 0.03 0.04 0.06 0.04 0.02 0.02 0.02 0.01
0.23 0.11 0.05 0.09 0.08 0.08 0.08 0.04 0.06 0.07 0.11 0.14 0.14 0.09 0.09 0.19 0.22 0.18 0.14 0.16 0.12 0.06 0.05 0.05 0.05 0.05 0.08 0.11 0.09 0.11 0.10 0.04 0.02 0.03 0.03 0.01 0.02 0.05 0.03 0.03 0.06 0.06 0.03 0.03 0.04 0.06 0.07 0.08 0.09 0.09 0.07 0.04 0.03 0.02
0.19 0.14 0.08 0.05 0.06 0.15 0.16 0.15 0.09 0.07 0.09 0.08 0.09 0.10 0.14 0.15 0.18 0.16 0.11 0.10 0.11 0.10 0.08 0.06 0.05 0.03 0.04 0.08 0.07 0.08 0.06 0.06 0.09 0.12 0.09 0.03 0.01 0.04 0.07 0.06 0.05 0.04 0.03 0.06 0.09 0.09 0.08 0.08 0.09 0.08 0.08 0.08 0.06 0.02
0.11 0.06 0.08 0.07 0.04 0.10 0.16 0.17 0.24 0.29 0.21 0.13 0.14 0.19 0.18 0.19 0.14 0.07 0.08 0.11 0.12 0.10 0.10 0.10 0.12 0.06 0.04 0.06 0.06 0.07 0.05 0.05 0.07 0.07 0.08 0.12 0.09 0.06 0.08 0.10 0.09 0.08 0.07 0.05 0.04 0.07 0.11 0.12 0.11 0.09 0.09 0.07 0.05 0.04
0.03 0.01 0.02 0.04 0.05 0.18 0.16 0.13 0.25 0.21 0.12 0.18 0.26 0.22 0.13 0.13 0.18 0.15 0.16 0.14 0.11 0.11 0.13 0.11 0.11 0.07 0.05 0.06 0.07 0.07 0.06 0.06 0.07 0.06 0.05 0.06 0.08 0.07 0.06 0.07 0.08 0.08 0.08 0.09 0.07 0.05 0.06 0.09 0.10 0.11 0.11 0.11 0.08 0.07
0.01 0.01 0.02 0.02 0.03 0.17 0.22 0.17 0.16 0.17 0.18 0.16 0.14 0.10 0.09 0.14 0.20 0.12 0.07 0.05 0.04 0.06 0.10 0.08 0.07 0.05 0.05 0.05 0.08 0.08 0.05 0.04 0.06 0.08 0.08 0.07 0.07 0.05 0.05 0.08 0.08 0.08 0.08 0.09 0.10 0.11 0.12 0.13 0.16 0.19 0.20 0.22 0.23 0.26
0.06 0.05 0.05 0.03 0.05 0.06 0.07 0.08 0.14 0.19 0.25 0.28 0.20 0.13 0.14 0.17 0.14 0.09 0.07 0.09 0.06 0.04 0.04 0.04 0.04 0.04 0.04 0.04 0.04 0.04 0.07 0.07 0.05 0.06 0.09 0.09 0.08 0.09 0.09 0.11 0.11 0.11 0.13 0.14 0.14 0.13 0.13 0.13 0.12 0.15 0.20 0.21 0.19 0.17
0.09 0.12 0.11 0.08 0.09 0.05 0.02 0.04 0.10 0.13 0.20 0.23 0.26 0.23 0.19 0.11 0.11 0.11 0.12 0.07 0.02 0.02 0.02 0.02 0.03 0.03 0.02 0.03 0.02 0.01 0.03 0.04 0.02 0.04 0.05 0.07 0.08 0.09 0.10 0.16 0.19 0.19 0.20 0.19 0.16 0.16 0.17 0.15 0.14 0.13 0.14 0.16 0.18 0.21
0.09 0.08 0.09 0.10 0.08 0.08 0.07 0.06 0.09 0.09 0.11 0.13 0.16 0.16 0.13 0.09 0.12 0.16 0.13 0.07 0.04 0.02 0.02 0.02 0.02 0.02 0.02 0.02 0.02 0.02 0.01 0.01 0.01 0.02 0.03 0.04 0.04 0.06 0.07 0.09 0.13 0.17 0.19 0.19 0.18 0.17 0.16 0.16 0.15 0.14 0.15 0.14 0.13 0.13

GFSWCAN_prec_precacc24_219.txt.gz
Total_Precipitation_Accumulation
0.06 0.08 0.07 0.03 0.02 0.01 0.04 0.02 0.02 0.01 0.03 0.07 0.19 0.24 0.29 0.35 0.44 0.76 1.06 0.44 1.30 1.51 0.46 0.05 0.03 0.05 0.05 0.18 0.37 0.24 0.50 0.63 0.78 0.86 0.86 0.71 0.58 0.31 0.18 0.10 0.15 0.40 0.70 0.82 0.74 0.68 0.29 0.01 0.01 0.06 0.06 0.01 0.01 0.02
0.05 0.08 0.06 0.03 0.01 0.02 0.01 0.01 0.01 0.01 0.03 0.07 0.16 0.22 0.21 0.25 0.46 0.53 0.94 0.63 1.31 2.03 1.17 0.08 0.02 0.01 0.02 0.11 0.19 0.37 0.48 0.33 0.42 0.60 0.46 0.47 0.33 0.22 0.16 0.17 0.09 0.13 0.33 0.63 0.72 0.50 0.11 0.01 0.02 0.07 0.12 0.12 0.10 0.10
0.05 0.06 0.05 0.03 0.01 0.00 0.01 0.01 0.00 0.02 0.02 0.03 0.13 0.19 0.17 0.28 0.43 0.57 0.70 0.96 1.96 2.17 1.00 0.27 0.07 0.03 0.06 0.14 0.18 0.76 0.51 0.16 0.32 0.30 0.54 0.48 0.38 0.20 0.16 0.09 0.10 0.09 0.09 0.20 0.35 0.29 0.23 0.21 0.10 0.05 0.06 0.07 0.07 0.06
0.03 0.04 0.04 0.03 0.01 0.01 0.01 0.01 0.00 0.01 0.01 0.01 0.05 0.13 0.14 0.23 0.48 0.54 0.53 0.62 1.12 1.06 0.94 0.61 0.16 0.11 0.08 0.11 0.26 0.34 0.24 0.14 0.34 0.54 0.93 0.90 0.58 0.31 0.26 0.23 0.21 0.15 0.21 0.22 0.22 0.08 0.05 0.05 0.10 0.10 0.08 0.04 0.04 0.02
0.03 0.03 0.04 0.03 0.02 0.01 0.01 0.00 0.00 0.00 0.00 0.00 0.01 0.03 0.06 0.09 0.26 0.48 0.39 0.39 0.58 0.65 0.69 0.69 0.44 0.32 0.19 0.15 0.21 0.34 0.33 0.37 0.65 0.81 0.84 0.60 0.35 0.46 0.36 0.29 0.19 0.06 0.08 0.17 0.22 0.10 0.16 0.24 0.19 0.09 0.15 0.22 0.11 0.04
0.02 0.02 0.02 0.03 0.02 0.01 0.01 0.01 0.01 0.00 0.00 0.00 0.00 0.00 0.02 0.05 0.07 0.33 0.50 0.44 0.44 0.49 0.64 0.64 0.76 0.71 0.34 0.29 0.34 0.47 0.83 0.91 0.77 0.69 0.51 0.23 0.08 0.29 0.47 0.23 0.04 0.01 0.04 0.11 0.18 0.12 0.12 0.13 0.16 0.19 0.20 0.20 0.20 0.17
0.01 0.01 0.01 0.01 0.01 0.01 0.01 0.01 0.01 0.01 0.00 0.00 0.00 0.00 0.00 0.01 0.03 0.09 0.32 0.40 0.34 0.32 0.51 0.39 0.51 0.72 0.76 0.52 0.60 0.71 0.72 1.15 1.05 0.89 0.57 0.24 0.12 0.24 0.28 0.05 0.01 0.02 0.07 0.11 0.09 0.10 0.08 0.03 0.02 0.05 0.06 0.10 0.09 0.12
0.01 0.02 0.01 0.01 0.01 0.01 0.01 0.01 0.01 0.01 0.01 0.00 0.00 0.00 0.00 0.00 0.01 0.02 0.01 0.06 0.22 0.43 0.44 0.38 0.40 0.44 0.55 0.70 0.69 0.60 0.66 0.65 0.66 0.67 0.47 0.28 0.25 0.29 0.21 0.01 0.00 0.00 0.00 0.01 0.04 0.08 0.08 0.08 0.10 0.06 0.01 0.00 0.01 0.06
0.02 0.01 0.01 0.01 0.01 0.01 0.01 0.01 0.01 0.01 0.00 0.00 0.00 0.00 0.00 0.00 0.01 0.02 0.00 0.01 0.08 0.32 0.40 0.25 0.21 0.39 0.31 0.35 0.49 0.48 0.43 0.55 0.41 0.35 0.30 0.29 0.30 0.17 0.03 0.00 0.01 0.01 0.02 0.02 0.03 0.05 0.03 0.04 0.10 0.19 0.09 0.01 0.00 0.00
0.02 0.01 0.01 0.02 0.02 0.01 0.01 0.01 0.01 0.00 0.00 0.00 0.00 0.01 0.03 0.01 0.00 0.00 0.01 0.06 0.12 0.20 0.32 0.32 0.15 0.25 0.29 0.27 0.36 0.35 0.32 0.38 0.41 0.30 0.17 0.20 0.07 0.01 0.00 0.00 0.01 0.00 0.00 0.01 0.02 0.01 0.02 0.02 0.04 0.03 0.02 0.00 0.00 0.00
0.02 0.02 0.02 0.02 0.02 0.01 0.01 0.01 0.01 0.01 0.00 0.00 0.02 0.03 0.01 0.00 0.00 0.01 0.05 0.06 0.07 0.17 0.23 0.32 0.27 0.23 0.20 0.23 0.28 0.24 0.28 0.22 0.26 0.20 0.12 0.13 0.06 0.02 0.01 0.02 0.01 0.00 0.00 0.02 0.01 0.00 0.01 0.01 0.02 0.01 0.00 0.00 0.00 0.00
0.02 0.02 0.02 0.02 0.01 0.02 0.01 0.01 0.01 0.02 0.01 0.00 0.01 0.01 0.00 0.00 0.01 0.02 0.02 0.01 0.05 0.12 0.11 0.15 0.18 0.13 0.11 0.04 0.13 0.12 0.16 0.11 0.17 0.08 0.10 0.05 0.03 0.00 0.02 0.04 0.02 0.01 0.01 0.01 0.01 0.00 0.00 0.00 0.00 0.00 0.00 0.00 0.00 0.00
0.02 0.02 0.02 0.02 0.01 0.01 0.01 0.01 0.02 0.01 0.00 0.00 0.02 0.03 0.02 0.01 0.02 0.04 0.02 0.02 0.06 0.07 0.05 0.03 0.06 0.05 0.04 0.05 0.08 0.08 0.13 0.11 0.07 0.10 0.05 0.05 0.01 0.00 0.01 0.06 0.04 0.03 0.03 0.02 0.01 0.01 0.02 0.02 0.02 0.01 0.01 0.00 0.00 0.00
0.02 0.02 0.02 0.01 0.01 0.01 0.01 0.01 0.00 0.00 0.00 0.01 0.05 0.03 0.01 0.00 0.00 0.01 0.02 0.02 0.02 0.02 0.04 0.03 0.05 0.05 0.04 0.05 0.06 0.08 0.06 0.03 0.05 0.04 0.08 0.08 0.01 0.01 0.04 0.05 0.05 0.03 0.03 0.03 0.06 0.11 0.15 0.10 0.06 0.04 0.02 0.00 0.00 0.00
0.02 0.02 0.02 0.01 0.02 0.03 0.02 0.01 0.01 0.01 0.01 0.01 0.01 0.02 0.01 0.00 0.00 0.00 0.01 0.01 0.01 0.01 0.02 0.04 0.06 0.06 0.08 0.05 0.01 0.02 0.03 0.04 0.03 0.08 0.09 0.04 0.01 0.02 0.03 0.02 0.01 0.02 0.02 0.03 0.07 0.12 0.20 0.23 0.17 0.11 0.03 0.00 0.00 0.00
0.05 0.04 0.01 0.01 0.01 0.01 0.01 0.01 0.01 0.03 0.04 0.01 0.00 0.01 0.00 0.00 0.00 0.00 0.00 0.01 0.01 0.01 0.01 0.02 0.04 0.04 0.02 0.02 0.01 0.01 0.02 0.03 0.06 0.03 0.00 0.01 0.01 0.01 0.06 0.09 0.07 0.02 0.01 0.01 0.02 0.02 0.05 0.07 0.08 0.07 0.05 0.01 0.00 0.00
0.06 0.03 0.02 0.02 0.02 0.01 0.01 0.03 0.02 0.04 0.03 0.00 0.00 0.00 0.00 0.00 0.00 0.01 0.01 0.01 0.00 0.02 0.03 0.06 0.03 0.01 0.03 0.02 0.02 0.02 0.04 0.06 0.02 0.00 0.00 0.00 0.00 0.01 0.03 0.08 0.11 0.03 0.00 0.00 0.00 0.00 0.00 0.00 0.00 0.00 0.01 0.01 0.01 0.01
0.06 0.02 0.02 0.02 0.03 0.03 0.02 0.04 0.04 0.01 0.00 0.00 0.00 0.00 0.01 0.00 0.01 0.00 0.01 0.01 0.02 0.01 0.04 0.06 0.06 0.02 0.02 0.01 0.01 0.06 0.05 0.00 0.00 0.00 0.00 0.00 0.00 0.00 0.03 0.05 0.07 0.04 0.01 0.00 0.00 0.00 0.00 0.00 0.00 0.00 0.00 0.01 0.01 0.01
0.05 0.03 0.02 0.03 0.09 0.13 0.05 0.03 0.02 0.01 0.00 0.00 0.00 0.00 0.01 0.01 0.01 0.01 0.01 0.01 0.01 0.01 0.06 0.06 0.04 0.01 0.03 0.03 0.06 0.09 0.01 0.00 0.00 0.00 0.00 0.00 0.00 0.00 0.00 0.01 0.02 0.02 0.01 0.00 0.00 0.00 0.00 0.00 0.00 0.00 0.00 0.00 0.01 0.01
0.06 0.05 0.02 0.04 0.19 0.19 0.07 0.01 0.04 0.04 0.01 0.00 0.00 0.01 0.01 0.02 0.02 0.02 0.02 0.02 0.02 0.04 0.05 0.03 0.00 0.03 0.06 0.08 0.06 0.10 0.03 0.00 0.00 0.00 0.00 0.01 0.01 0.00 0.00 0.00 0.00 0.00 0.00 0.00 0.00 0.00 0.00 0.00 0.00 0.00 0.00 0.00 0.01 0.01
0.08 0.03 0.04 0.09 0.20 0.21 0.10 0.01 0.02 0.02 0.03 0.03 0.02 0.03 0.04 0.04 0.05 0.04 0.03 0.04 0.05 0.03 0.00 0.00 0.00 0.01 0.02 0.03 0.04 0.03 0.02 0.00 0.00 0.00 0.00 0.00 0.01 0.01 0.00 0.00 0.00 0.00 0.00 0.00 0.00 0.00 0.00 0.00 0.00 0.00 0.00 0.00 0.00 0.01
0.12 0.10 0.15 0.23 0.32 0.22 0.19 0.02 0.01 0.02 0.06 0.05 0.07 0.11 0.13 0.10 0.06 0.05 0.08 0.08 0.04 0.01 0.00 0.01 0.01 0.03 0.02 0.01 0.04 0.03 0.01 0.00 0.00 0.00 0.00 0.00 0.01 0.00 0.00 0.00 0.00 0.00 0.00 0.00 0.00 0.00 0.00 0.00 0.00 0.00 0.00 0.01 0.00 0.00
0.18 0.21 0.30 0.31 0.47 0.30 0.11 0.03 0.03 0.02 0.07 0.06 0.07 0.10 0.10 0.08 0.10 0.10 0.16 0.06 0.03 0.01 0.00 0.00 0.00 0.02 0.04 0.02 0.04 0.05 0.01 0.01 0.00 0.00 0.00 0.00 0.00 0.00 0.00 0.00 0.00 0.00 0.00 0.00 0.00 0.00 0.00 0.00 0.00 0.01 0.01 0.01 0.01 0.02
0.40 0.43 0.24 0.17 0.20 0.23 0.19 0.08 0.05 0.05 0.05 0.07 0.11 0.12 0.10 0.10 0.15 0.25 0.21 0.06 0.05 0.03 0.02 0.02 0.01 0.04 0.08 0.10 0.12 0.08 0.08 0.07 0.01 0.00 0.00 0.00 0.00 0.01 0.00 0.00 0.00 0.00 0.00 0.00 0.00 0.00 0.00 0.00 0.01 0.02 0.02 0.02 0.02 0.01
0.54 0.53 0.34 0.22 0.08 0.12 0.11 0.15 0.14 0.16 0.11 0.06 0.08 0.09 0.14 0.16 0.24 0.19 0.11 0.11 0.11 0.10 0.08 0.06 0.06 0.08 0.10 0.11 0.11 0.09 0.10 0.05 0.00 0.01 0.02 0.01 0.01 0.01 0.03 0.05 0.04 0.02 0.01 0.03 0.04 0.03 0.02 0.03 0.06 0.04 0.02 0.02 0.02 0.01
0.31 0.13 0.07 0.12 0.10 0.09 0.09 0.05 0.07 0.08 0.13 0.16 0.15 0.11 0.11 0.21 0.23 0.25 0.27 0.24 0.22 0.15 0.09 0.06 0.05 0.06 0.10 0.11 0.10 0.11 0.09 0.04 0.02 0.01 0.02 0.01 0.02 0.02 0.02 0.03 0.06 0.06 0.03 0.03 0.04 0.06 0.07 0.08 0.09 0.09 0.07 0.04 0.03 0.02
0.25 0.17 0.11 0.06 0.08 0.18 0.21 0.18 0.12 0.10 0.14 0.16 0.16 0.16 0.21 0.22 0.25 0.22 0.16 0.16 0.19 0.20 0.18 0.09 0.06 0.05 0.04 0.08 0.10 0.08 0.05 0.05 0.08 0.09 0.06 0.02 0.01 0.03 0.06 0.06 0.05 0.04 0.03 0.06 0.09 0.08 0.07 0.07 0.08 0.08 0.08 0.08 0.06 0.02
0.16 0.06 0.08 0.07 0.04 0.11 0.18 0.21 0.27 0.32 0.24 0.16 0.16 0.25 0.27 0.27 0.20 0.13 0.13 0.18 0.25 0.23 0.20 0.14 0.15 0.10 0.06 0.08 0.11 0.13 0.09 0.06 0.06 0.05 0.06 0.09 0.08 0.05 0.08 0.11 0.10 0.08 0.07 0.05 0.05 0.07 0.11 0.12 0.10 0.08 0.07 0.06 0.04 0.04
0.05 0.01 0.02 0.03 0.05 0.21 0.20 0.15 0.26 0.22 0.13 0.18 0.27 0.25 0.16 0.16 0.25 0.20 0.22 0.18 0.18 0.18 0.18 0.16 0.20 0.20 0.11 0.08 0.10 0.13 0.16 0.13 0.09 0.06 0.05 0.06 0.08 0.08 0.05 0.06 0.08 0.08 0.08 0.09 0.07 0.06 0.07 0.10 0.11 0.12 0.11 0.11 0.07 0.06
0.02 0.01 0.03 0.02 0.03 0.21 0.27 0.17 0.17 0.18 0.18 0.17 0.15 0.11 0.10 0.17 0.25 0.16 0.14 0.09 0.06 0.09 0.13 0.12 0.13 0.13 0.14 0.11 0.12 0.10 0.08 0.08 0.08 0.06 0.05 0.06 0.06 0.05 0.04 0.04 0.05 0.06 0.07 0.09 0.10 0.11 0.13 0.13 0.16 0.20 0.21 0.22 0.24 0.27
0.08 0.06 0.05 0.03 0.06 0.09 0.07 0.08 0.16 0.20 0.25 0.30 0.21 0.13 0.15 0.19 0.16 0.10 0.11 0.13 0.08 0.05 0.04 0.07 0.08 0.09 0.10 0.09 0.08 0.08 0.10 0.12 0.10 0.07 0.06 0.05 0.03 0.02 0.04 0.06 0.07 0.09 0.11 0.12 0.13 0.13 0.13 0.13 0.13 0.15 0.20 0.22 0.20 0.18
0.12 0.13 0.12 0.08 0.10 0.06 0.03 0.04 0.13 0.16 0.22 0.26 0.30 0.24 0.20 0.12 0.12 0.12 0.14 0.08 0.02 0.03 0.03 0.03 0.05 0.07 0.06 0.07 0.05 0.04 0.05 0.07 0.04 0.03 0.02 0.02 0.04 0.05 0.06 0.10 0.13 0.15 0.17 0.16 0.15 0.15 0.17 0.15 0.14 0.14 0.15 0.18 0.20 0.22
0.10 0.08 0.09 0.10 0.09 0.08 0.08 0.07 0.14 0.12 0.12 0.15 0.21 0.19 0.15 0.10 0.15 0.21 0.16 0.09 0.05 0.03 0.03 0.02 0.03 0.03 0.02 0.02 0.03 0.02 0.01 0.01 0.01 0.00 0.01 0.01 0.02 0.03 0.03 0.05 0.09 0.12 0.16 0.17 0.17 0.16 0.17 0.16 0.16 0.16 0.16 0.16 0.14 0.13

GFSWCAN_prec_precacc24_222.txt.gz
Total_Precipitation_Accumulation
0.05 0.07 0.07 0.03 0.02 0.01 0.03 0.02 0.01 0.01 0.03 0.04 0.09 0.14 0.19 0.18 0.23 0.57 0.67 0.36 1.29 1.50 0.46 0.04 0.02 0.03 0.05 0.19 0.35 0.16 0.46 0.51 0.66 0.79 0.74 0.54 0.47 0.25 0.16 0.08 0.14 0.38 0.67 0.75 0.67 0.62 0.28 0.01 0.01 0.06 0.06 0.01 0.01 0.02
0.04 0.07 0.05 0.03 0.01 0.01 0.01 0.01 0.01 0.01 0.02 0.03 0.07 0.11 0.11 0.14 0.21 0.43 0.65 0.39 1.28 2.05 1.16 0.08 0.02 0.01 0.02 0.11 0.19 0.37 0.49 0.32 0.43 0.62 0.43 0.45 0.33 0.23 0.18 0.16 0.07 0.13 0.33 0.62 0.70 0.49 0.10 0.01 0.02 0.07 0.12 0.12 0.10 0.11
0.04 0.05 0.04 0.03 0.01 0.01 0.01 0.01 0.01 0.01 0.01 0.01 0.05 0.08 0.06 0.14 0.24 0.36 0.48 0.80 1.95 2.16 0.95 0.25 0.06 0.03 0.05 0.11 0.18 0.76 0.51 0.16 0.33 0.31 0.65 0.56 0.40 0.19 0.14 0.07 0.08 0.08 0.09 0.20 0.36 0.28 0.23 0.21 0.10 0.05 0.06 0.07 0.07 0.07
0.03 0.03 0.03 0.02 0.01 0.01 0.01 0.01 0.01 0.01 0.01 0.00 0.02 0.04 0.05 0.12 0.32 0.39 0.34 0.52 1.10 1.02 0.77 0.33 0.07 0.08 0.07 0.10 0.21 0.29 0.23 0.13 0.37 0.67 1.17 1.04 0.62 0.29 0.23 0.22 0.20 0.14 0.22 0.23 0.22 0.08 0.05 0.05 0.10 0.11 0.08 0.04 0.04 0.02
0.02 0.03 0.03 0.02 0.02 0.02 0.02 0.01 0.01 0.01 0.01 0.01 0.00 0.01 0.04 0.03 0.19 0.43 0.29 0.29 0.55 0.63 0.53 0.36 0.19 0.11 0.07 0.08 0.16 0.30 0.29 0.35 0.68 1.05 1.03 0.65 0.35 0.48 0.39 0.28 0.17 0.05 0.07 0.17 0.22 0.10 0.16 0.24 0.19 0.10 0.17 0.23 0.17 0.06
0.01 0.01 0.02 0.03 0.02 0.01 0.02 0.01 0.02 0.01 0.01 0.01 0.00 0.00 0.02 0.03 0.04 0.29 0.41 0.36 0.40 0.48 0.68 0.58 0.46 0.37 0.15 0.15 0.23 0.36 0.74 0.86 0.83 0.84 0.57 0.26 0.08 0.36 0.58 0.24 0.04 0.01 0.04 0.11 0.18 0.12 0.12 0.13 0.17 0.20 0.22 0.23 0.29 0.34
0.01 0.01 0.01 0.02 0.01 0.01 0.01 0.01 0.01 0.01 0.01 0.01 0.00 0.00 0.00 0.02 0.03 0.09 0.27 0.35 0.33 0.35 0.57 0.36 0.33 0.45 0.56 0.42 0.53 0.66 0.69 1.17 1.12 1.02 0.68 0.29 0.13 0.33 0.40 0.06 0.01 0.02 0.07 0.11 0.09 0.10 0.08 0.03 0.03 0.05 0.06 0.16 0.24 0.32
0.01 0.01 0.02 0.01 0.01 0.01 0.01 0.01 0.01 0.01 0.01 0.00 0.00 0.00 0.00 0.01 0.01 0.03 0.01 0.06 0.22 0.44 0.47 0.40 0.30 0.35 0.51 0.68 0.67 0.60 0.67 0.67 0.67 0.68 0.49 0.29 0.26 0.32 0.24 0.01 0.00 0.00 0.00 0.01 0.04 0.09 0.10 0.08 0.10 0.06 0.03 0.02 0.02 0.12
0.01 0.01 0.01 0.01 0.01 0.01 0.01 0.01 0.01 0.01 0.00 0.00 0.00 0.00 0.00 0.00 0.01 0.02 0.00 0.02 0.10 0.32 0.44 0.27 0.20 0.32 0.29 0.35 0.49 0.51 0.46 0.57 0.42 0.38 0.30 0.30 0.31 0.17 0.03 0.00 0.01 0.01 0.02 0.02 0.03 0.05 0.03 0.04 0.10 0.20 0.19 0.07 0.03 0.11
0.01 0.01 0.02 0.02 0.02 0.02 0.01 0.01 0.02 0.01 0.00 0.00 0.00 0.01 0.03 0.01 0.00 0.01 0.02 0.09 0.16 0.26 0.38 0.33 0.15 0.22 0.28 0.26 0.36 0.39 0.38 0.39 0.43 0.30 0.17 0.22 0.07 0.01 0.00 0.00 0.01 0.00 0.00 0.01 0.02 0.01 0.02 0.02 0.04 0.05 0.08 0.01 0.01 0.04
0.02 0.02 0.02 0.02 0.02 0.02 0.02 0.02 0.02 0.01 0.00 0.00 0.02 0.04 0.01 0.00 0.00 0.02 0.05 0.07 0.08 0.20 0.25 0.32 0.27 0.22 0.19 0.23 0.33 0.33 0.32 0.24 0.29 0.21 0.15 0.16 0.06 0.02 0.01 0.02 0.01 0.00 0.00 0.02 0.01 0.00 0.01 0.01 0.02 0.04 0.02 0.03 0.02 0.01
0.02 0.02 0.02 0.02 0.02 0.02 0.02 0.02 0.02 0.03 0.02 0.01 0.02 0.01 0.00 0.00 0.01 0.03 0.02 0.02 0.05 0.12 0.11 0.15 0.18 0.14 0.12 0.05 0.13 0.12 0.17 0.14 0.19 0.13 0.16 0.07 0.03 0.00 0.02 0.04 0.02 0.01 0.01 0.01 0.01 0.00 0.00 0.00 0.00 0.00 0.00 0.01 0.02 0.02
0.03 0.03 0.03 0.02 0.01 0.02 0.02 0.02 0.03 0.02 0.01 0.00 0.02 0.03 0.02 0.01 0.03 0.03 0.01 0.02 0.06 0.07 0.04 0.03 0.08 0.07 0.05 0.05 0.08 0.09 0.16 0.15 0.08 0.14 0.11 0.06 0.01 0.00 0.02 0.07 0.04 0.04 0.03 0.02 0.01 0.01 0.02 0.02 0.02 0.01 0.00 0.00 0.00 0.02
0.03 0.03 0.03 0.02 0.01 0.02 0.03 0.03 0.01 0.01 0.01 0.02 0.07 0.04 0.01 0.01 0.00 0.00 0.01 0.01 0.01 0.02 0.04 0.05 0.06 0.05 0.04 0.06 0.06 0.09 0.06 0.03 0.06 0.05 0.10 0.10 0.01 0.01 0.04 0.06 0.05 0.03 0.03 0.04 0.06 0.12 0.16 0.11 0.07 0.04 0.02 0.01 0.00 0.00
0.03 0.03 0.03 0.01 0.03 0.04 0.04 0.02 0.02 0.03 0.02 0.02 0.02 0.03 0.00 0.00 0.00 0.00 0.01 0.00 0.01 0.02 0.03 0.05 0.06 0.06 0.08 0.07 0.01 0.02 0.04 0.04 0.04 0.11 0.13 0.06 0.01 0.02 0.03 0.02 0.01 0.02 0.02 0.03 0.08 0.14 0.23 0.28 0.24 0.19 0.08 0.01 0.00 0.02
0.05 0.05 0.01 0.01 0.02 0.01 0.02 0.02 0.01 0.05 0.06 0.01 0.00 0.00 0.00 0.00 0.00 0.00 0.00 0.01 0.02 0.02 0.02 0.03 0.05 0.04 0.02 0.02 0.02 0.01 0.02 0.03 0.07 0.04 0.01 0.01 0.00 0.01 0.06 0.10 0.07 0.03 0.01 0.02 0.03 0.05 0.08 0.12 0.13 0.12 0.07 0.02 0.02 0.02
0.07 0.03 0.02 0.03 0.03 0.02 0.03 0.06 0.04 0.05 0.04 0.01 0.00 0.00 0.00 0.00 0.00 0.01 0.01 0.00 0.01 0.02 0.03 0.07 0.04 0.02 0.03 0.02 0.02 0.02 0.04 0.06 0.02 0.00 0.00 0.00 0.00 0.01 0.03 0.09 0.13 0.04 0.01 0.00 0.00 0.01 0.01 0.01 0.01 0.01 0.01 0.02 0.01 0.01
0.06 0.02 0.04 0.03 0.04 0.03 0.02 0.05 0.06 0.03 0.01 0.00 0.00 0.00 0.01 0.00 0.01 0.00 0.01 0.01 0.02 0.02 0.05 0.06 0.06 0.03 0.02 0.00 0.01 0.06 0.05 0.00 0.00 0.00 0.00 0.00 0.00 0.00 0.04 0.07 0.10 0.11 0.04 0.00 0.00 0.00 0.00 0.01 0.00 0.00 0.01 0.01 0.01 0.01
0.06 0.04 0.04 0.04 0.10 0.14 0.05 0.04 0.03 0.02 0.00 0.00 0.00 0.00 0.01 0.01 0.01 0.01 0.01 0.01 0.02 0.03 0.09 0.08 0.07 0.02 0.01 0.01 0.06 0.08 0.01 0.00 0.00 0.00 0.00 0.00 0.00 0.00 0.00 0.04 0.10 0.11 0.05 0.00 0.00 0.00 0.00 0.00 0.00 0.00 0.00 0.00 0.01 0.01
0.07 0.06 0.04 0.05 0.23 0.22 0.09 0.02 0.06 0.06 0.02 0.00 0.00 0.01 0.01 0.02 0.02 0.02 0.02 0.03 0.03 0.07 0.09 0.05 0.01 0.03 0.06 0.08 0.06 0.08 0.03 0.01 0.00 0.00 0.00 0.01 0.01 0.00 0.00 0.00 0.01 0.04 0.06 0.02 0.00 0.00 0.00 0.00 0.00 0.00 0.00 0.00 0.01 0.02
0.10 0.03 0.05 0.12 0.23 0.25 0.14 0.02 0.03 0.03 0.03 0.03 0.02 0.03 0.04 0.04 0.05 0.04 0.03 0.04 0.05 0.03 0.02 0.00 0.00 0.01 0.03 0.04 0.05 0.05 0.03 0.00 0.00 0.00 0.00 0.00 0.01 0.01 0.00 0.00 0.00 0.00 0.00 0.01 0.01 0.00 0.00 0.00 0.00 0.00 0.00 0.01 0.01 0.01
0.12 0.11 0.17 0.26 0.38 0.25 0.22 0.03 0.01 0.02 0.06 0.05 0.06 0.10 0.12 0.10 0.06 0.05 0.08 0.08 0.04 0.01 0.01 0.01 0.01 0.03 0.03 0.01 0.05 0.04 0.02 0.00 0.00 0.00 0.00 0.00 0.01 0.00 0.00 0.00 0.00 0.00 0.00 0.00 0.00 0.00 0.00 0.00 0.00 0.00 0.01 0.01 0.01 0.02
0.20 0.23 0.36 0.34 0.51 0.33 0.12 0.03 0.03 0.02 0.08 0.06 0.06 0.10 0.09 0.08 0.10 0.09 0.16 0.07 0.03 0.01 0.01 0.01 0.01 0.02 0.04 0.03 0.07 0.06 0.01 0.01 0.00 0.00 0.00 0.00 0.00 0.00 0.00 0.00 0.00 0.00 0.00 0.00 0.00 0.00 0.00 0.00 0.01 0.01 0.01 0.01 0.01 0.03
0.44 0.47 0.26 0.18 0.21 0.24 0.19 0.08 0.06 0.05 0.05 0.07 0.11 0.12 0.09 0.10 0.13 0.22 0.18 0.05 0.04 0.03 0.02 0.02 0.02 0.05 0.08 0.11 0.14 0.10 0.11 0.08 0.02 0.00 0.00 0.00 0.00 0.00 0.00 0.00 0.00 0.00 0.00 0.00 0.00 0.00 0.00 0.00 0.00 0.01 0.01 0.02 0.02 0.01
0.61 0.68 0.43 0.27 0.09 0.12 0.11 0.15 0.14 0.16 0.11 0.06 0.08 0.09 0.14 0.16 0.24 0.19 0.11 0.10 0.10 0.10 0.09 0.08 0.07 0.08 0.10 0.11 0.13 0.12 0.13 0.08 0.01 0.01 0.02 0.01 0.01 0.00 0.01 0.02 0.02 0.01 0.00 0.01 0.01 0.01 0.02 0.02 0.04 0.03 0.02 0.02 0.02 0.01
0.31 0.15 0.12 0.17 0.13 0.09 0.10 0.05 0.07 0.09 0.13 0.17 0.16 0.11 0.12 0.22 0.26 0.31 0.30 0.26 0.24 0.18 0.11 0.12 0.13 0.09 0.10 0.11 0.11 0.12 0.09 0.06 0.03 0.01 0.01 0.01 0.01 0.02 0.01 0.02 0.05 0.05 0.02 0.02 0.02 0.03 0.04 0.06 0.07 0.08 0.07 0.04 0.03 0.02
0.29 0.22 0.16 0.07 0.08 0.19 0.21 0.19 0.13 0.12 0.16 0.18 0.20 0.23 0.31 0.38 0.35 0.26 0.17 0.17 0.21 0.26 0.29 0.21 0.14 0.14 0.09 0.09 0.11 0.10 0.06 0.04 0.03 0.04 0.03 0.01 0.01 0.03 0.05 0.05 0.05 0.04 0.04 0.06 0.09 0.08 0.07 0.06 0.07 0.07 0.08 0.08 0.06 0.03
0.22 0.08 0.08 0.07 0.04 0.11 0.19 0.22 0.28 0.33 0.24 0.16 0.16 0.26 0.29 0.31 0.25 0.18 0.18 0.22 0.30 0.32 0.44 0.45 0.25 0.14 0.16 0.16 0.20 0.23 0.17 0.10 0.04 0.02 0.02 0.05 0.06 0.05 0.08 0.11 0.10 0.08 0.07 0.05 0.05 0.07 0.10 0.11 0.09 0.07 0.07 0.06 0.04 0.04
0.09 0.01 0.02 0.04 0.05 0.21 0.23 0.17 0.27 0.22 0.13 0.19 0.27 0.25 0.18 0.18 0.29 0.24 0.25 0.21 0.20 0.25 0.32 0.29 0.26 0.24 0.17 0.15 0.17 0.24 0.29 0.26 0.10 0.04 0.02 0.05 0.07 0.09 0.07 0.06 0.07 0.07 0.08 0.08 0.07 0.06 0.07 0.09 0.11 0.12 0.10 0.09 0.06 0.05
0.02 0.01 0.03 0.02 0.04 0.24 0.29 0.17 0.17 0.18 0.18 0.18 0.15 0.11 0.11 0.20 0.29 0.18 0.15 0.11 0.09 0.14 0.18 0.16 0.17 0.20 0.28 0.19 0.17 0.21 0.21 0.18 0.14 0.06 0.03 0.03 0.04 0.04 0.03 0.02 0.02 0.03 0.05 0.07 0.08 0.11 0.13 0.13 0.16 0.19 0.21 0.23 0.25 0.28
0.09 0.07 0.05 0.03 0.08 0.12 0.07 0.08 0.16 0.20 0.25 0.30 0.21 0.13 0.16 0.20 0.16 0.10 0.11 0.14 0.09 0.06 0.05 0.07 0.09 0.12 0.17 0.16 0.15 0.14 0.18 0.22 0.21 0.15 0.09 0.05 0.02 0.01 0.01 0.01 0.02 0.04 0.06 0.07 0.09 0.11 0.12 0.12 0.12 0.15 0.19 0.21 0.20 0.19
0.15 0.14 0.11 0.08 0.10 0.06 0.03 0.04 0.16 0.19 0.23 0.27 0.30 0.24 0.20 0.12 0.12 0.13 0.15 0.08 0.02 0.03 0.04 0.04 0.05 0.09 0.09 0.10 0.11 0.10 0.11 0.15 0.12 0.09 0.07 0.04 0.02 0.01 0.01 0.02 0.04 0.07 0.09 0.10 0.10 0.11 0.13 0.12 0.13 0.13 0.15 0.20 0.20 0.23
0.13 0.09 0.09 0.09 0.08 0.08 0.06 0.07 0.17 0.15 0.14 0.16 0.23 0.21 0.15 0.10 0.16 0.23 0.17 0.09 0.06 0.04 0.04 0.03 0.03 0.04 0.03 0.04 0.04 0.04 0.04 0.03 0.03 0.01 0.01 0.01 0.01 0.01 0.00 0.02 0.04 0.07 0.10 0.12 0.12 0.12 0.12 0.13 0.14 0.15 0.17 0.17 0.14 0.14

GFSWCAN_prec_precacc24_225.txt.gz
Total_Precipitation_Accumulation
0.04 0.04 0.03 0.01 0.01 0.01 0.01 0.01 0.01 0.01 0.02 0.02 0.02 0.03 0.06 0.10 0.14 0.45 0.55 0.28 1.10 1.36 0.43 0.03 0.01 0.03 0.03 0.16 0.32 0.07 0.37 0.39 0.46 0.62 0.55 0.36 0.32 0.18 0.15 0.08 0.14 0.37 0.65 0.69 0.59 0.55 0.26 0.01 0.01 0.06 0.06 0.01 0.01 0.02
0.03 0.04 0.04 0.03 0.02 0.01 0.01 0.01 0.01 0.01 0.00 0.01 0.01 0.01 0.03 0.06 0.11 0.38 0.60 0.20 0.98 1.88 1.11 0.08 0.01 0.00 0.01 0.09 0.18 0.36 0.43 0.26 0.35 0.57 0.39 0.40 0.31 0.25 0.20 0.19 0.07 0.13 0.34 0.62 0.70 0.48 0.10 0.01 0.02 0.07 0.12 0.12 0.10 0.11
0.03 0.03 0.03 0.03 0.02 0.02 0.01 0.01 0.01 0.01 0.00 0.00 0.00 0.00 0.01 0.05 0.09 0.28 0.39 0.44 1.38 1.81 0.86 0.18 0.03 0.00 0.03 0.10 0.17 0.76 0.51 0.15 0.33 0.31 0.70 0.61 0.43 0.19 0.15 0.07 0.08 0.08 0.09 0.20 0.36 0.28 0.23 0.21 0.10 0.05 0.06 0.07 0.07 0.07
0.02 0.02 0.03 0.02 0.02 0.02 0.02 0.02 0.02 0.02 0.01 0.01 0.01 0.01 0.02 0.04 0.10 0.22 0.29 0.40 0.97 0.98 0.68 0.19 0.04 0.02 0.02 0.06 0.13 0.25 0.22 0.13 0.36 0.68 1.25 1.12 0.67 0.30 0.24 0.22 0.20 0.14 0.22 0.23 0.21 0.07 0.04 0.05 0.10 0.11 0.08 0.04 0.04 0.03
0.02 0.02 0.03 0.02 0.02 0.02 0.02 0.02 0.02 0.02 0.02 0.02 0.02 0.02 0.02 0.02 0.05 0.15 0.19 0.25 0.48 0.64 0.45 0.16 0.10 0.04 0.03 0.05 0.09 0.17 0.19 0.32 0.66 1.11 1.12 0.68 0.35 0.48 0.39 0.25 0.13 0.04 0.07 0.18 0.22 0.09 0.16 0.24 0.19 0.10 0.17 0.23 0.17 0.06
0.01 0.01 0.02 0.02 0.02 0.01 0.02 0.02 0.02 0.01 0.01 0.01 0.01 0.01 0.02 0.02 0.04 0.16 0.21 0.22 0.35 0.48 0.72 0.47 0.22 0.17 0.06 0.08 0.14 0.29 0.53 0.69 0.75 0.89 0.62 0.28 0.08 0.41 0.66 0.19 0.02 0.01 0.04 0.11 0.18 0.12 0.12 0.13 0.17 0.20 0.22 0.23 0.29 0.34
0.01 0.01 0.01 0.02 0.02 0.01 0.01 0.01 0.02 0.01 0.01 0.01 0.01 0.01 0.01 0.02 0.04 0.08 0.14 0.14 0.21 0.40 0.68 0.28 0.14 0.22 0.33 0.25 0.35 0.50 0.56 1.05 1.08 1.10 0.72 0.27 0.11 0.37 0.47 0.07 0.01 0.02 0.07 0.11 0.09 0.10 0.08 0.03 0.03 0.05 0.06 0.16 0.24 0.32
0.01 0.01 0.01 0.01 0.01 0.01 0.01 0.01 0.02 0.01 0.01 0.01 0.01 0.00 0.01 0.02 0.03 0.03 0.01 0.05 0.19 0.46 0.51 0.36 0.15 0.21 0.42 0.60 0.55 0.48 0.57 0.64 0.69 0.71 0.49 0.27 0.25 0.35 0.28 0.01 0.00 0.00 0.00 0.01 0.04 0.09 0.10 0.08 0.10 0.06 0.03 0.03 0.03 0.13
0.01 0.01 0.01 0.01 0.01 0.02 0.01 0.01 0.02 0.01 0.01 0.01 0.00 0.00 0.01 0.01 0.02 0.01 0.00 0.02 0.10 0.32 0.43 0.25 0.14 0.20 0.22 0.32 0.46 0.49 0.47 0.57 0.41 0.37 0.30 0.30 0.31 0.18 0.03 0.00 0.01 0.01 0.02 0.02 0.03 0.05 0.03 0.04 0.10 0.20 0.19 0.07 0.04 0.13
0.01 0.01 0.02 0.02 0.02 0.02 0.02 0.02 0.02 0.02 0.01 0.00 0.00 0.02 0.03 0.01 0.00 0.01 0.04 0.18 0.30 0.36 0.40 0.30 0.13 0.16 0.21 0.23 0.33 0.35 0.40 0.41 0.40 0.26 0.17 0.22 0.07 0.01 0.00 0.00 0.01 0.00 0.00 0.01 0.02 0.01 0.02 0.02 0.04 0.05 0.08 0.02 0.01 0.05
0.02 0.02 0.02 0.02 0.02 0.03 0.02 0.02 0.02 0.02 0.00 0.01 0.04 0.06 0.02 0.01 0.04 0.04 0.08 0.11 0.13 0.24 0.24 0.24 0.21 0.17 0.16 0.23 0.32 0.33 0.37 0.26 0.31 0.20 0.17 0.17 0.06 0.02 0.01 0.02 0.01 0.00 0.00 0.02 0.01 0.00 0.01 0.01 0.02 0.04 0.02 0.03 0.02 0.02
0.02 0.02 0.02 0.03 0.03 0.03 0.02 0.02 0.03 0.04 0.02 0.01 0.03 0.01 0.00 0.00 0.05 0.06 0.05 0.02 0.06 0.11 0.11 0.13 0.17 0.12 0.11 0.05 0.14 0.13 0.18 0.14 0.20 0.17 0.25 0.09 0.03 0.01 0.02 0.04 0.02 0.01 0.01 0.01 0.01 0.00 0.00 0.00 0.00 0.00 0.00 0.01 0.02 0.06
0.03 0.03 0.03 0.03 0.02 0.02 0.02 0.03 0.04 0.04 0.02 0.01 0.03 0.03 0.02 0.01 0.03 0.03 0.01 0.01 0.06 0.07 0.04 0.03 0.09 0.08 0.05 0.06 0.08 0.09 0.17 0.15 0.09 0.16 0.14 0.08 0.01 0.00 0.02 0.07 0.04 0.04 0.03 0.03 0.01 0.01 0.02 0.02 0.02 0.01 0.00 0.00 0.00 0.05
0.03 0.03 0.03 0.02 0.01 0.02 0.03 0.04 0.04 0.03 0.03 0.02 0.08 0.05 0.02 0.01 0.00 0.00 0.01 0.01 0.01 0.02 0.04 0.05 0.09 0.07 0.05 0.07 0.06 0.09 0.06 0.03 0.06 0.06 0.11 0.10 0.01 0.01 0.04 0.06 0.05 0.03 0.03 0.04 0.07 0.12 0.17 0.13 0.08 0.07 0.02 0.01 0.01 0.00
0.03 0.03 0.03 0.01 0.03 0.04 0.04 0.04 0.03 0.04 0.03 0.03 0.03 0.04 0.00 0.00 0.00 0.00 0.01 0.00 0.01 0.02 0.04 0.07 0.08 0.08 0.11 0.08 0.01 0.02 0.04 0.05 0.04 0.12 0.13 0.06 0.01 0.02 0.03 0.02 0.01 0.02 0.03 0.03 0.08 0.14 0.24 0.29 0.26 0.22 0.11 0.03 0.01 0.03
0.05 0.05 0.01 0.02 0.02 0.02 0.03 0.04 0.01 0.05 0.08 0.01 0.00 0.00 0.00 0.00 0.00 0.00 0.00 0.01 0.02 0.03 0.03 0.05 0.07 0.07 0.03 0.03 0.02 0.01 0.02 0.03 0.07 0.04 0.01 0.01 0.00 0.01 0.06 0.10 0.08 0.03 0.01 0.02 0.03 0.05 0.09 0.16 0.20 0.22 0.13 0.09 0.10 0.15
0.08 0.04 0.02 0.04 0.03 0.03 0.03 0.07 0.05 0.07 0.04 0.01 0.00 0.00 0.00 0.00 0.00 0.01 0.01 0.00 0.01 0.02 0.03 0.08 0.06 0.02 0.03 0.02 0.02 0.02 0.04 0.06 0.02 0.00 0.00 0.00 0.00 0.01 0.04 0.09 0.13 0.06 0.02 0.00 0.01 0.02 0.02 0.02 0.03 0.04 0.04 0.06 0.02 0.01
0.07 0.02 0.04 0.04 0.04 0.03 0.02 0.05 0.07 0.04 0.03 0.00 0.00 0.00 0.01 0.00 0.01 0.00 0.01 0.01 0.02 0.02 0.05 0.07 0.07 0.03 0.03 0.01 0.01 0.06 0.05 0.00 0.00 0.00 0.00 0.00 0.00 0.00 0.04 0.07 0.10 0.15 0.09 0.00 0.00 0.00 0.01 0.01 0.01 0.01 0.01 0.01 0.01 0.01
0.06 0.04 0.04 0.06 0.13 0.15 0.05 0.05 0.04 0.02 0.00 0.00 0.00 0.00 0.01 0.01 0.01 0.01 0.01 0.01 0.02 0.03 0.09 0.09 0.08 0.03 0.01 0.01 0.06 0.08 0.01 0.00 0.00 0.00 0.00 0.00 0.00 0.00 0.00 0.04 0.11 0.16 0.11 0.02 0.00 0.00 0.00 0.00 0.00 0.00 0.01 0.00 0.01 0.01
0.07 0.06 0.04 0.07 0.27 0.28 0.09 0.02 0.08 0.08 0.02 0.00 0.00 0.01 0.01 0.02 0.02 0.02 0.02 0.03 0.03 0.07 0.10 0.07 0.01 0.02 0.05 0.08 0.06 0.08 0.03 0.01 0.00 0.00 0.00 0.01 0.01 0.00 0.00 0.00 0.01 0.07 0.15 0.08 0.01 0.00 0.00 0.00 0.00 0.00 0.00 0.00 0.01 0.02
0.11 0.04 0.07 0.14 0.26 0.33 0.20 0.03 0.04 0.04 0.04 0.03 0.02 0.03 0.04 0.04 0.05 0.04 0.03 0.04 0.05 0.03 0.02 0.01 0.01 0.02 0.03 0.04 0.05 0.05 0.04 0.01 0.00 0.00 0.00 0.00 0.01 0.01 0.00 0.00 0.00 0.00 0.02 0.06 0.04 0.01 0.00 0.00 0.00 0.00 0.00 0.01 0.01 0.01
0.12 0.12 0.17 0.28 0.42 0.28 0.24 0.03 0.02 0.02 0.06 0.05 0.06 0.09 0.12 0.10 0.06 0.05 0.08 0.08 0.04 0.01 0.01 0.01 0.01 0.03 0.03 0.01 0.05 0.04 0.03 0.01 0.01 0.00 0.00 0.00 0.01 0.00 0.00 0.00 0.00 0.01 0.01 0.00 0.00 0.00 0.00 0.00 0.00 0.00 0.01 0.02 0.02 0.03
0.22 0.24 0.38 0.36 0.53 0.36 0.13 0.03 0.04 0.02 0.08 0.06 0.06 0.09 0.09 0.08 0.09 0.09 0.15 0.07 0.03 0.01 0.01 0.01 0.01 0.02 0.04 0.03 0.07 0.06 0.02 0.01 0.00 0.00 0.00 0.00 0.00 0.00 0.00 0.00 0.00 0.00 0.00 0.00 0.00 0.00 0.00 0.00 0.01 0.01 0.01 0.02 0.02 0.04
0.47 0.49 0.28 0.21 0.23 0.24 0.19 0.09 0.06 0.05 0.05 0.07 0.10 0.11 0.09 0.10 0.13 0.21 0.16 0.05 0.04 0.03 0.02 0.02 0.02 0.05 0.08 0.11 0.14 0.11 0.11 0.08 0.02 0.00 0.00 0.00 0.00 0.00 0.00 0.00 0.00 0.00 0.00 0.00 0.00 0.00 0.00 0.00 0.01 0.02 0.01 0.02 0.02 0.02
0.64 0.75 0.47 0.28 0.08 0.11 0.10 0.15 0.14 0.16 0.11 0.06 0.08 0.09 0.14 0.16 0.23 0.19 0.11 0.10 0.10 0.09 0.08 0.07 0.06 0.06 0.08 0.08 0.10 0.11 0.14 0.09 0.01 0.01 0.02 0.01 0.01 0.00 0.00 0.01 0.02 0.01 0.00 0.01 0.00 0.01 0.00 0.01 0.01 0.01 0.01 0.01 0.01 0.01
0.31 0.15 0.15 0.21 0.16 0.10 0.10 0.05 0.07 0.10 0.14 0.18 0.16 0.12 0.13 0.26 0.29 0.33 0.31 0.26 0.24 0.17 0.12 0.13 0.15 0.11 0.10 0.10 0.10 0.11 0.09 0.07 0.06 0.02 0.01 0.00 0.00 0.01 0.01 0.01 0.02 0.02 0.01 0.01 0.01 0.00 0.00 0.01 0.03 0.04 0.03 0.03 0.03 0.02
0.30 0.22 0.19 0.13 0.11 0.21 0.23 0.20 0.14 0.13 0.18 0.21 0.21 0.24 0.34 0.46 0.41 0.28 0.18 0.18 0.23 0.27 0.30 0.23 0.17 0.26 0.21 0.12 0.12 0.11 0.07 0.06 0.10 0.04 0.01 0.00 0.00 0.01 0.02 0.04 0.04 0.03 0.02 0.03 0.06 0.06 0.04 0.02 0.03 0.04 0.05 0.05 0.05 0.03
0.23 0.10 0.08 0.08 0.07 0.13 0.20 0.23 0.28 0.34 0.25 0.16 0.16 0.26 0.29 0.31 0.26 0.18 0.20 0.25 0.33 0.35 0.49 0.52 0.36 0.26 0.36 0.37 0.23 0.24 0.22 0.16 0.18 0.10 0.01 0.03 0.03 0.02 0.04 0.07 0.08 0.07 0.05 0.04 0.04 0.06 0.09 0.10 0.08 0.05 0.04 0.04 0.04 0.04
0.12 0.02 0.02 0.03 0.05 0.22 0.25 0.18 0.28 0.22 0.13 0.19 0.27 0.26 0.18 0.18 0.31 0.27 0.26 0.22 0.22 0.27 0.40 0.47 0.46 0.38 0.26 0.42 0.34 0.34 0.41 0.47 0.29 0.15 0.02 0.05 0.06 0.08 0.05 0.03 0.04 0.04 0.04 0.05 0.06 0.06 0.06 0.08 0.09 0.11 0.09 0.08 0.05 0.05
0.03 0.01 0.03 0.02 0.03 0.26 0.29 0.17 0.17 0.18 0.19 0.18 0.15 0.11 0.11 0.21 0.30 0.18 0.15 0.11 0.10 0.17 0.26 0.24 0.26 0.25 0.32 0.25 0.26 0.31 0.31 0.45 0.45 0.12 0.03 0.03 0.04 0.04 0.02 0.02 0.01 0.01 0.02 0.03 0.04 0.08 0.11 0.11 0.11 0.14 0.16 0.20 0.24 0.25
0.08 0.08 0.05 0.03 0.09 0.15 0.07 0.07 0.16 0.20 0.25 0.31 0.21 0.13 0.16 0.21 0.16 0.10 0.11 0.14 0.09 0.08 0.08 0.08 0.11 0.14 0.22 0.24 0.20 0.19 0.31 0.46 0.46 0.27 0.17 0.10 0.04 0.03 0.02 0.01 0.01 0.01 0.01 0.02 0.03 0.05 0.08 0.09 0.10 0.12 0.16 0.18 0.18 0.18
0.14 0.11 0.08 0.07 0.09 0.06 0.03 0.04 0.18 0.20 0.24 0.28 0.31 0.25 0.21 0.12 0.12 0.13 0.15 0.08 0.02 0.03 0.05 0.05 0.06 0.11 0.13 0.15 0.14 0.15 0.18 0.28 0.24 0.21 0.21 0.16 0.08 0.03 0.01 0.00 0.00 0.01 0.01 0.02 0.03 0.03 0.06 0.06 0.09 0.11 0.14 0.18 0.19 0.22
0.14 0.08 0.07 0.08 0.08 0.08 0.06 0.08 0.22 0.17 0.15 0.17 0.24 0.21 0.15 0.10 0.16 0.24 0.18 0.09 0.06 0.05 0.04 0.05 0.05 0.05 0.04 0.04 0.05 0.06 0.06 0.06 0.06 0.05 0.04 0.03 0.02 0.01 0.00 0.00 0.01 0.01 0.03 0.05 0.07 0.06 0.06 0.08 0.10 0.10 0.13 0.15 0.12 0.12